{"data":{"norad_id":67450,"epoch":"2026-05-25T00:16:58.547136Z","epoch_age_seconds":71094,"freshness":"FRESH","line1":"1 67450U 26008F   26145.01178874  .00017010  00000+0  62593-3 0  9998","line2":"2 67450  42.9970 134.2873 0001111 278.2663  81.8063 15.27595702 21249","mean_motion":15.27595702,"eccentricity":0.0001111,"inclination_deg":42.997,"raan_deg":134.2873,"arg_perigee_deg":278.2663,"mean_anomaly_deg":81.8063,"bstar":0.00062593,"rev_number":2124,"period_min":94.265779755382,"perigee_km":482.23980645395,"apogee_km":483.76435155731,"semimajor_km":6861.1390790056,"source":"CELESTRAK","updated_at":"2026-05-25T13:38:21.560115Z"}}